| time (UTC) | temp C | wind direction | speed KPH | gust KPH | rain 1hr cm | rain 24hr cm | rain mn cm | humidity % | barometer mb |
| 20260509211603 | 17 | 270 | 6.4 | 19.3 | 0.00 | 0.00 | 0.00 | 70 | 1002.4 |
| 20260509211103 | 17 | 284 | 4.8 | 16.1 | 0.00 | 0.00 | 0.00 | 71 | 1002.6 |
| 20260509210603 | 17 | 249 | 4.8 | 11.3 | 0.00 | 0.00 | 0.00 | 71 | 1002.7 |
| 20260509210104 | 17 | 299 | 6.4 | 16.1 | 0.00 | 0.00 | 0.00 | 71 | 1002.7 |
| 20260509205103 | 17 | 289 | 4.8 | 14.5 | 0.00 | 0.00 | 0.00 | 70 | 1002.7 |
| 20260509204104 | 17 | 281 | 8.0 | 16.1 | 0.00 | 0.00 | 0.00 | 71 | 1002.8 |
| 20260509203603 | 17 | 279 | 4.8 | 9.7 | 0.00 | 0.00 | 0.00 | 71 | 1002.7 |
| 20260509203103 | 17 | 285 | 6.4 | 16.1 | 0.00 | 0.00 | 0.00 | 69 | 1002.8 |
| 20260509202603 | 17 | 248 | 9.7 | 20.9 | 0.00 | 0.00 | 0.00 | 68 | 1002.7 |
| 20260509202103 | 17 | 277 | 8.0 | 22.5 | 0.00 | 0.00 | 0.00 | 68 | 1002.9 |
| 20260509201603 | 17 | 276 | 8.0 | 16.1 | 0.00 | 0.00 | 0.00 | 67 | 1002.8 |
| 20260509201103 | 17 | 270 | 8.0 | 16.1 | 0.00 | 0.00 | 0.00 | 67 | 1002.7 |
| 20260509200604 | 18 | 243 | 8.0 | 19.3 | 0.00 | 0.00 | 0.00 | 66 | 1002.7 |
| 20260509195103 | 18 | 236 | 8.0 | 20.9 | 0.00 | 0.00 | 0.00 | 66 | 1002.9 |
| 20260509194604 | 18 | 264 | 11.3 | 20.9 | 0.00 | 0.00 | 0.00 | 66 | 1003.0 |
| 20260509194104 | 18 | 276 | 8.0 | 16.1 | 0.00 | 0.00 | 0.00 | 67 | 1002.8 |
| 20260509192104 | 18 | 250 | 11.3 | 20.9 | 0.00 | 0.00 | 0.00 | 64 | 1003.4 |
| 20260509191604 | 18 | 281 | 8.0 | 22.5 | 0.00 | 0.00 | 0.00 | 66 | 1003.4 |
| 20260509191104 | 17 | 259 | 8.0 | 20.9 | 0.00 | 0.00 | 0.00 | 68 | 1003.5 |
| 20260509190603 | 17 | 252 | 8.0 | 14.5 | 0.00 | 0.00 | 0.00 | 68 | 1003.7 |
| 20260509190104 | 17 | 274 | 8.0 | 19.3 | 0.00 | 0.00 | 0.00 | 70 | 1003.7 |
| 20260509185603 | 17 | 276 | 9.7 | 20.9 | 0.00 | 0.00 | 0.00 | 68 | 1003.8 |
| 20260509184603 | 18 | 275 | 11.3 | 19.3 | 0.00 | 0.00 | 0.00 | 66 | 1003.7 |
| 20260509184104 | 18 | 263 | 11.3 | 24.1 | 0.00 | 0.00 | 0.00 | 66 | 1003.7 |
| 20260509183603 | 18 | 249 | 9.7 | 22.5 | 0.00 | 0.00 | 0.00 | 64 | 1003.8 |
| 20260509183103 | 18 | 244 | 6.4 | 12.9 | 0.00 | 0.00 | 0.00 | 68 | 1003.7 |
| 20260509182603 | 17 | 237 | 3.2 | 19.3 | 0.00 | 0.00 | 0.00 | 67 | 1003.7 |
| 20260509181603 | 18 | 272 | 9.7 | 22.5 | 0.00 | 0.00 | 0.00 | 67 | 1004.0 |
| 20260509181103 | 18 | 276 | 11.3 | 22.5 | 0.00 | 0.00 | 0.00 | 68 | 1003.9 |
| 20260509180603 | 18 | 266 | 9.7 | 19.3 | 0.00 | 0.00 | 0.00 | 69 | 1003.8 |
| 20260509180104 | 18 | 265 | 9.7 | 24.1 | 0.00 | 0.00 | 0.00 | 70 | 1003.8 |
| 20260509175603 | 17 | 242 | 8.0 | 24.1 | 0.00 | 0.00 | 0.00 | 70 | 1004.0 |
| 20260509175105 | 17 | 272 | 8.0 | 19.3 | 0.00 | 0.00 | 0.00 | 69 | 1004.1 |
| 20260509174604 | 18 | 260 | 4.8 | 16.1 | 0.00 | 0.00 | 0.00 | 70 | 1004.3 |
| 20260509174104 | 17 | 258 | 4.8 | 19.3 | 0.00 | 0.00 | 0.00 | 68 | 1004.5 |
| 20260509173604 | 17 | 264 | 11.3 | 29.0 | 0.00 | 0.00 | 0.00 | 69 | 1004.5 |
| 20260509173104 | 17 | 272 | 3.2 | 16.1 | 0.00 | 0.00 | 0.00 | 70 | 1004.7 |
| 20260509172604 | 17 | 277 | 9.7 | 20.9 | 0.00 | 0.00 | 0.00 | 69 | 1004.8 |
| 20260509172103 | 17 | 256 | 9.7 | 19.3 | 0.00 | 0.00 | 0.00 | 69 | 1004.9 |
| 20260509171603 | 17 | 275 | 6.4 | 14.5 | 0.00 | 0.00 | 0.00 | 70 | 1004.8 |
| 20260509171103 | 17 | 283 | 6.4 | 14.5 | 0.00 | 0.00 | 0.00 | 67 | 1004.7 |
| 20260509165604 | 17 | 231 | 6.4 | 19.3 | 0.00 | 0.00 | 0.00 | 68 | 1004.9 |
| 20260509164604 | 17 | 271 | 4.8 | 14.5 | 0.00 | 0.00 | 0.00 | 71 | 1004.9 |
| 20260509163603 | 17 | 291 | 6.4 | 24.1 | 0.00 | 0.00 | 0.00 | 71 | 1005.1 |
| 20260509163103 | 17 | 287 | 4.8 | 19.3 | 0.00 | 0.00 | 0.00 | 71 | 1005.2 |
| 20260509162603 | 16 | 277 | 4.8 | 9.7 | 0.00 | 0.00 | 0.00 | 71 | 1005.3 |
| 20260509162103 | 16 | 248 | 6.4 | 16.1 | 0.00 | 0.00 | 0.00 | 72 | 1005.3 |
| 20260509161603 | 16 | 283 | 8.0 | 14.5 | 0.00 | 0.00 | 0.00 | 70 | 1005.3 |
| 20260509161104 | 17 | 292 | 8.0 | 16.1 | 0.00 | 0.00 | 0.00 | 71 | 1005.3 |
| 20260509160603 | 17 | 267 | 4.8 | 12.9 | 0.00 | 0.00 | 0.00 | 72 | 1005.3 |
| 20260509160104 | 17 | 284 | 4.8 | 12.9 | 0.00 | 0.00 | 0.00 | 72 | 1005.2 |
| 20260509155603 | 16 | 282 | 3.2 | 8.0 | 0.00 | 0.00 | 0.00 | 73 | 1005.2 |
| 20260509155104 | 17 | 264 | 4.8 | 16.1 | 0.00 | 0.00 | 0.00 | 72 | 1005.3 |
| 20260509154104 | 17 | 248 | 4.8 | 19.3 | 0.00 | 0.00 | 0.00 | 71 | 1005.5 |
| 20260509153604 | 17 | 240 | 4.8 | 20.9 | 0.00 | 0.00 | 0.00 | 72 | 1005.5 |
| 20260509153103 | 16 | 210 | 3.2 | 8.0 | 0.00 | 0.00 | 0.00 | 78 | 1005.5 |
| 20260509152604 | 15 | 282 | 4.8 | 11.3 | 0.00 | 0.00 | 0.00 | 76 | 1005.7 |
| 20260509152103 | 15 | 266 | 4.8 | 9.7 | 0.00 | 0.00 | 0.00 | 73 | 1005.7 |
| 20260509151104 | 16 | 210 | 3.2 | 14.5 | 0.00 | 0.00 | 0.00 | 77 | 1005.8 |
| 20260509150604 | 16 | 242 | 4.8 | 14.5 | 0.00 | 0.00 | 0.00 | 76 | 1005.9 |
| 20260509150103 | 16 | 274 | 4.8 | 12.9 | 0.00 | 0.00 | 0.00 | 78 | 1005.8 |
| 20260509145604 | 15 | 211 | 4.8 | 19.3 | 0.00 | 0.00 | 0.00 | 77 | 1005.9 |
| 20260509145103 | 14 | 250 | 4.8 | 12.9 | 0.00 | 0.00 | 0.00 | 79 | 1005.8 |
| 20260509144603 | 14 | 250 | 4.8 | 12.9 | 0.00 | 0.00 | 0.00 | 79 | 1005.9 |
| 20260509144104 | 14 | 262 | 6.4 | 14.5 | 0.00 | 0.00 | 0.00 | 79 | 1005.9 |
| 20260509143603 | 15 | 274 | 4.8 | 9.7 | 0.00 | 0.00 | 0.00 | 77 | 1005.9 |
| 20260509143104 | 15 | 239 | 3.2 | 16.1 | 0.00 | 0.00 | 0.00 | 80 | 1005.9 |
| 20260509142603 | 14 | 306 | 4.8 | 11.3 | 0.00 | 0.00 | 0.00 | 80 | 1005.9 |
| 20260509141604 | 14 | 239 | 4.8 | 9.7 | 0.00 | 0.00 | 0.00 | 80 | 1006.0 |
| 20260509141103 | 14 | 262 | 4.8 | 16.1 | 0.00 | 0.00 | 0.00 | 80 | 1006.1 |
| 20260509140603 | 15 | 237 | 6.4 | 12.9 | 0.00 | 0.00 | 0.00 | 80 | 1006.0 |
| 20260509140104 | 14 | 303 | 3.2 | 12.9 | 0.00 | 0.00 | 0.00 | 82 | 1006.1 |
| 20260509135603 | 13 | 256 | 8.0 | 16.1 | 0.00 | 0.00 | 0.00 | 82 | 1006.3 |
| 20260509135103 | 13 | 260 | 8.0 | 19.3 | 0.00 | 0.00 | 0.00 | 82 | 1006.3 |
| 20260509134603 | 13 | 285 | 8.0 | 16.1 | 0.00 | 0.00 | 0.00 | 82 | 1006.4 |
| 20260509134103 | 13 | 257 | 4.8 | 14.5 | 0.00 | 0.00 | 0.00 | 82 | 1006.3 |
| 20260509133605 | 14 | 272 | 4.8 | 9.7 | 0.00 | 0.00 | 0.00 | 81 | 1006.3 |
| 20260509133103 | 14 | 244 | 3.2 | 9.7 | 0.00 | 0.00 | 0.00 | 81 | 1006.3 |
| 20260509132603 | 13 | 241 | 4.8 | 11.3 | 0.00 | 0.00 | 0.00 | 81 | 1006.3 |
| 20260509132103 | 13 | 260 | 3.2 | 19.3 | 0.00 | 0.00 | 0.00 | 83 | 1006.3 |
| 20260509131603 | 13 | 250 | 3.2 | 12.9 | 0.00 | 0.00 | 0.00 | 83 | 1006.4 |
| 20260509131104 | 13 | 233 | 3.2 | 9.7 | 0.00 | 0.00 | 0.00 | 83 | 1006.4 |
| 20260509130604 | 13 | 245 | 8.0 | 16.1 | 0.00 | 0.00 | 0.00 | 84 | 1006.3 |
| 20260509125603 | 12 | 219 | 3.2 | 12.9 | 0.00 | 0.00 | 0.00 | 86 | 1006.4 |
| 20260509125103 | 11 | 239 | 4.8 | 14.5 | 0.00 | 0.00 | 0.00 | 86 | 1006.3 |
| 20260509124604 | 11 | 247 | 3.2 | 12.9 | 0.00 | 0.00 | 0.00 | 86 | 1006.4 |
| 20260509124103 | 11 | 245 | 3.2 | 11.3 | 0.00 | 0.00 | 0.00 | 87 | 1006.4 |
| 20260509123604 | 11 | 250 | 3.2 | 8.0 | 0.00 | 0.00 | 0.00 | 87 | 1006.6 |
| 20260509122605 | 10 | 240 | 1.6 | 9.7 | 0.00 | 0.00 | 0.00 | 87 | 1006.7 |
| 20260509122103 | 10 | 238 | 3.2 | 4.8 | 0.00 | 0.00 | 0.00 | 87 | 1006.8 |
| 20260509121604 | 10 | 245 | 1.6 | 4.8 | 0.00 | 0.00 | 0.00 | 88 | 1006.8 |
| 20260509121104 | 10 | 237 | 1.6 | 8.0 | 0.00 | 0.00 | 0.00 | 88 | 1006.8 |
| 20260509120604 | 10 | 222 | 1.6 | 4.8 | 0.00 | 0.03 | 0.00 | 89 | 1006.8 |
| 20260509120105 | 9 | 220 | 1.6 | 4.8 | 0.00 | 0.03 | 0.00 | 89 | 1006.8 |
| 20260509115603 | 9 | 203 | 3.2 | 4.8 | 0.00 | 0.03 | 0.00 | 89 | 1006.8 |
| 20260509115103 | 8 | 234 | 1.6 | 3.2 | 0.00 | 0.03 | 0.00 | 89 | 1006.7 |
| 20260509114604 | 8 | 224 | 1.6 | 4.8 | 0.00 | 0.03 | 0.00 | 89 | 1006.7 |
| 20260509114104 | 8 | 221 | 1.6 | 4.8 | 0.00 | 0.03 | 0.00 | 89 | 1006.8 |
| 20260509113103 | 8 | 202 | 3.2 | 4.8 | 0.00 | 0.05 | 0.00 | 89 | 1006.6 |
| 20260509112604 | 8 | 212 | 3.2 | 8.0 | 0.00 | 0.05 | 0.00 | 89 | 1006.6 |
| 20260509112104 | 7 | 209 | 3.2 | 4.8 | 0.00 | 0.08 | 0.00 | 89 | 1006.7 |
| 20260509111605 | 7 | 221 | 3.2 | 8.0 | 0.00 | 0.08 | 0.00 | 90 | 1006.8 |
| 20260509111103 | 7 | 216 | 3.2 | 4.8 | 0.00 | 0.10 | 0.00 | 89 | 1006.9 |
| 20260509110104 | 7 | 205 | 1.6 | 4.8 | 0.00 | 0.13 | 0.00 | 89 | 1006.8 |
| 20260509105603 | 7 | 240 | 0.0 | 1.6 | 0.00 | 0.13 | 0.00 | 88 | 1006.9 |
| 20260509104604 | 7 | 240 | 1.6 | 3.2 | 0.00 | 0.13 | 0.00 | 88 | 1007.1 |
| 20260509103603 | 6 | 243 | 3.2 | 4.8 | 0.00 | 0.13 | 0.00 | 88 | 1007.0 |
| 20260509103103 | 6 | 240 | 3.2 | 4.8 | 0.00 | 0.13 | 0.00 | 88 | 1006.9 |
| 20260509102603 | 6 | 242 | 3.2 | 8.0 | 0.00 | 0.13 | 0.00 | 88 | 1007.0 |
| 20260509102103 | 6 | 246 | 4.8 | 8.0 | 0.00 | 0.13 | 0.00 | 87 | 1007.0 |
| 20260509101604 | 6 | 254 | 3.2 | 4.8 | 0.00 | 0.13 | 0.00 | 87 | 1006.9 |
| 20260509101103 | 6 | 245 | 3.2 | 4.8 | 0.00 | 0.13 | 0.00 | 87 | 1006.8 |
| 20260509100604 | 6 | 235 | 1.6 | 3.2 | 0.00 | 0.13 | 0.00 | 87 | 1006.8 |
| 20260509100103 | 6 | 256 | 1.6 | 3.2 | 0.00 | 0.13 | 0.00 | 86 | 1006.8 |
| 20260509095604 | 6 | 256 | 0.0 | 3.2 | 0.00 | 0.13 | 0.00 | 86 | 1006.9 |
| 20260509095103 | 6 | 256 | 1.6 | 3.2 | 0.00 | 0.13 | 0.00 | 86 | 1006.9 |
| 20260509094603 | 6 | 257 | 1.6 | 3.2 | 0.00 | 0.13 | 0.00 | 85 | 1006.8 |
| 20260509093104 | 6 | 245 | 1.6 | 4.8 | 0.00 | 0.13 | 0.00 | 84 | 1006.8 |
| 20260509092604 | 5 | 245 | 1.6 | 3.2 | 0.00 | 0.13 | 0.00 | 84 | 1006.9 |
| 20260509091604 | 5 | 245 | 1.6 | 4.8 | 0.00 | 0.13 | 0.00 | 84 | 1006.9 |
| 20260509091104 | 5 | 238 | 1.6 | 4.8 | 0.00 | 0.13 | 0.00 | 84 | 1006.9 |
| 20260509090605 | 5 | 235 | 1.6 | 4.8 | 0.00 | 0.13 | 0.00 | 84 | 1006.9 |
| 20260509090104 | 5 | 235 | 3.2 | 4.8 | 0.00 | 0.13 | 0.00 | 84 | 1006.9 |
| 20260509085604 | 5 | 234 | 1.6 | 3.2 | 0.00 | 0.13 | 0.00 | 84 | 1006.9 |
| 20260509085104 | 5 | 231 | 1.6 | 3.2 | 0.00 | 0.13 | 0.00 | 84 | 1007.0 |
| 20260509084104 | 5 | 227 | 1.6 | 3.2 | 0.00 | 0.13 | 0.00 | 83 | 1007.1 |
| 20260509083604 | 5 | 226 | 1.6 | 4.8 | 0.00 | 0.13 | 0.00 | 83 | 1007.2 |
| 20260509083104 | 5 | 216 | 1.6 | 3.2 | 0.00 | 0.13 | 0.00 | 83 | 1007.2 |
| 20260509082603 | 5 | 207 | 1.6 | 3.2 | 0.00 | 0.13 | 0.00 | 82 | 1007.2 |
| 20260509082103 | 4 | 207 | 1.6 | 4.8 | 0.00 | 0.13 | 0.00 | 82 | 1007.2 |
| 20260509081604 | 4 | 211 | 3.2 | 4.8 | 0.00 | 0.13 | 0.00 | 82 | 1007.2 |
| 20260509081104 | 4 | 195 | 1.6 | 4.8 | 0.00 | 0.13 | 0.00 | 82 | 1007.3 |
| 20260509080604 | 5 | 197 | 1.6 | 4.8 | 0.00 | 0.13 | 0.00 | 81 | 1007.2 |
| 20260509080104 | 5 | 205 | 1.6 | 4.8 | 0.00 | 0.13 | 0.00 | 81 | 1007.3 |
| 20260509075604 | 5 | 193 | 1.6 | 4.8 | 0.00 | 0.13 | 0.00 | 81 | 1007.3 |
| 20260509075104 | 5 | 205 | 1.6 | 3.2 | 0.00 | 0.13 | 0.00 | 81 | 1007.3 |
| 20260509074603 | 5 | 203 | 1.6 | 3.2 | 0.00 | 0.13 | 0.00 | 81 | 1007.3 |
| 20260509074104 | 4 | 203 | 1.6 | 3.2 | 0.00 | 0.13 | 0.00 | 81 | 1007.4 |
| 20260509073603 | 4 | 201 | 1.6 | 4.8 | 0.00 | 0.13 | 0.00 | 81 | 1007.5 |
| 20260509072604 | 4 | 199 | 1.6 | 3.2 | 0.00 | 0.13 | 0.00 | 80 | 1007.6 |
| 20260509071604 | 4 | 211 | 1.6 | 3.2 | 0.00 | 0.13 | 0.00 | 79 | 1007.6 |
| 20260509071103 | 4 | 198 | 1.6 | 4.8 | 0.00 | 0.13 | 0.00 | 79 | 1007.6 |
| 20260509070604 | 4 | 199 | 1.6 | 4.8 | 0.00 | 0.13 | 0.00 | 79 | 1007.7 |
| 20260509070104 | 4 | 199 | 1.6 | 4.8 | 0.00 | 0.13 | 0.00 | 79 | 1007.7 |
| 20260509065604 | 5 | 191 | 1.6 | 4.8 | 0.00 | 0.13 | 0.00 | 78 | 1007.8 |
| 20260509065103 | 5 | 218 | 1.6 | 3.2 | 0.00 | 0.13 | 0.00 | 78 | 1007.8 |
| 20260509064103 | 5 | 206 | 1.6 | 4.8 | 0.00 | 0.13 | 0.00 | 78 | 1007.9 |
| 20260509063104 | 5 | 222 | 1.6 | 3.2 | 0.00 | 0.13 | 0.00 | 77 | 1008.0 |
| 20260509062603 | 5 | 222 | 1.6 | 3.2 | 0.00 | 0.13 | 0.00 | 77 | 1008.1 |
| 20260509061604 | 5 | 222 | 1.6 | 3.2 | 0.00 | 0.13 | 0.00 | 77 | 1008.3 |
| 20260509060603 | 5 | 226 | 1.6 | 3.2 | 0.00 | 0.13 | 0.00 | 77 | 1008.5 |
| 20260509060104 | 5 | 229 | 1.6 | 4.8 | 0.00 | 0.13 | 0.00 | 77 | 1008.5 |
| 20260509055604 | 5 | 214 | 1.6 | 3.2 | 0.00 | 0.13 | 0.00 | 76 | 1008.6 |
| 20260509055104 | 5 | 208 | 1.6 | 3.2 | 0.00 | 0.13 | 0.00 | 77 | 1008.6 |
| 20260509054603 | 5 | 214 | 3.2 | 8.0 | 0.00 | 0.13 | 0.00 | 76 | 1008.6 |
| 20260509054105 | 5 | 208 | 1.6 | 8.0 | 0.00 | 0.13 | 0.00 | 76 | 1008.6 |
| 20260509052103 | 5 | 245 | 1.6 | 4.8 | 0.00 | 0.13 | 0.00 | 74 | 1008.9 |
| 20260509051604 | 5 | 191 | 4.8 | 8.0 | 0.00 | 0.13 | 0.00 | 74 | 1008.8 |
| 20260509051104 | 5 | 201 | 3.2 | 4.8 | 0.00 | 0.13 | 0.00 | 73 | 1008.9 |
| 20260509050603 | 5 | 202 | 4.8 | 8.0 | 0.00 | 0.13 | 0.00 | 73 | 1009.0 |
| 20260509050104 | 5 | 206 | 3.2 | 4.8 | 0.00 | 0.13 | 0.00 | 73 | 1009.1 |
| 20260509045604 | 5 | 191 | 3.2 | 8.0 | 0.00 | 0.13 | 0.00 | 73 | 1009.2 |
| 20260509045104 | 5 | 216 | 1.6 | 4.8 | 0.00 | 0.13 | 0.00 | 73 | 1009.2 |
| 20260509044604 | 5 | 212 | 1.6 | 4.8 | 0.00 | 0.13 | 0.00 | 73 | 1009.2 |
| 20260509044104 | 5 | 220 | 1.6 | 4.8 | 0.00 | 0.13 | 0.00 | 72 | 1009.2 |
| 20260509043604 | 5 | 211 | 1.6 | 3.2 | 0.00 | 0.13 | 0.00 | 71 | 1009.4 |
| 20260509043104 | 5 | 212 | 1.6 | 4.8 | 0.00 | 0.13 | 0.00 | 71 | 1009.4 |
| 20260509042604 | 5 | 215 | 1.6 | 3.2 | 0.00 | 0.13 | 0.00 | 71 | 1009.4 |
| 20260509042104 | 5 | 215 | 1.6 | 4.8 | 0.00 | 0.13 | 0.00 | 70 | 1009.4 |
| 20260509041604 | 5 | 240 | 1.6 | 3.2 | 0.00 | 0.13 | 0.00 | 70 | 1009.4 |
| 20260509041104 | 5 | 240 | 1.6 | 4.8 | 0.00 | 0.13 | 0.00 | 69 | 1009.5 |
| 20260509035604 | 5 | 249 | 1.6 | 3.2 | 0.00 | 0.13 | 0.13 | 70 | 1009.6 |
| 20260509035103 | 5 | 249 | 1.6 | 3.2 | 0.00 | 0.13 | 0.13 | 70 | 1009.6 |
| 20260509034604 | 5 | 249 | 1.6 | 3.2 | 0.00 | 0.13 | 0.13 | 70 | 1009.7 |
| 20260509034103 | 5 | 249 | 1.6 | 3.2 | 0.00 | 0.13 | 0.13 | 70 | 1009.7 |
| 20260509033603 | 5 | 249 | 1.6 | 3.2 | 0.00 | 0.13 | 0.13 | 70 | 1009.7 |
| 20260509033103 | 5 | 249 | 1.6 | 3.2 | 0.00 | 0.13 | 0.13 | 70 | 1009.7 |
| 20260509032604 | 5 | 249 | 1.6 | 3.2 | 0.00 | 0.13 | 0.13 | 70 | 1009.7 |
| 20260509032105 | 5 | 249 | 1.6 | 3.2 | 0.00 | 0.13 | 0.13 | 69 | 1009.8 |
| 20260509031603 | 5 | 249 | 1.6 | 3.2 | 0.00 | 0.13 | 0.13 | 68 | 1009.9 |
| 20260509031103 | 5 | 249 | 1.6 | 3.2 | 0.00 | 0.13 | 0.13 | 67 | 1009.9 |
| 20260509030604 | 5 | 249 | 1.6 | 3.2 | 0.00 | 0.13 | 0.13 | 67 | 1009.9 |
| 20260509030104 | 5 | 249 | 1.6 | 3.2 | 0.00 | 0.13 | 0.13 | 66 | 1010.0 |
| 20260509025603 | 5 | 249 | 1.6 | 4.8 | 0.00 | 0.13 | 0.13 | 66 | 1009.9 |
| 20260509025104 | 5 | 249 | 1.6 | 3.2 | 0.00 | 0.13 | 0.13 | 67 | 1009.9 |
| 20260509024104 | 5 | 245 | 3.2 | 4.8 | 0.00 | 0.13 | 0.13 | 68 | 1010.0 |
| 20260509023604 | 5 | 224 | 3.2 | 4.8 | 0.00 | 0.13 | 0.13 | 69 | 1010.0 |
| 20260509023104 | 5 | 250 | 1.6 | 4.8 | 0.00 | 0.13 | 0.13 | 69 | 1010.0 |
| 20260509022104 | 5 | 251 | 1.6 | 4.8 | 0.00 | 0.13 | 0.13 | 68 | 1009.8 |
| 20260509021604 | 6 | 251 | 1.6 | 3.2 | 0.00 | 0.15 | 0.13 | 68 | 1009.8 |
| 20260509020604 | 6 | 251 | 0.0 | 3.2 | 0.00 | 0.18 | 0.13 | 68 | 1009.8 |
| 20260509020104 | 6 | 251 | 1.6 | 3.2 | 0.00 | 0.20 | 0.13 | 67 | 1009.8 |
| 20260509015603 | 6 | 251 | 1.6 | 3.2 | 0.00 | 0.20 | 0.13 | 66 | 1009.8 |
| 20260509015104 | 7 | 251 | 1.6 | 3.2 | 0.00 | 0.20 | 0.13 | 66 | 1009.7 |
| 20260509014604 | 7 | 251 | 1.6 | 3.2 | 0.00 | 0.20 | 0.13 | 65 | 1009.7 |
| 20260509014104 | 7 | 251 | 0.0 | 0.0 | 0.00 | 0.23 | 0.13 | 64 | 1009.7 |
| 20260509013104 | 7 | 251 | 1.6 | 3.2 | 0.00 | 0.23 | 0.13 | 62 | 1009.6 |
| 20260509012604 | 8 | 251 | 1.6 | 3.2 | 0.00 | 0.23 | 0.13 | 60 | 1009.6 |
| 20260509011604 | 8 | 251 | 1.6 | 4.8 | 0.00 | 0.23 | 0.13 | 58 | 1009.7 |
| 20260509011103 | 8 | 240 | 1.6 | 3.2 | 0.00 | 0.23 | 0.13 | 58 | 1009.7 |
| 20260509005605 | 9 | 262 | 1.6 | 3.2 | 0.00 | 0.23 | 0.13 | 58 | 1009.6 |
| 20260509005104 | 9 | 258 | 3.2 | 4.8 | 0.00 | 0.23 | 0.13 | 58 | 1009.6 |
| 20260509004603 | 10 | 253 | 3.2 | 4.8 | 0.00 | 0.23 | 0.13 | 57 | 1009.6 |
| 20260509004104 | 10 | 238 | 3.2 | 4.8 | 0.00 | 0.23 | 0.13 | 57 | 1009.5 |
| 20260509003604 | 10 | 251 | 1.6 | 3.2 | 0.00 | 0.23 | 0.13 | 56 | 1009.5 |
| 20260509002604 | 10 | 239 | 3.2 | 4.8 | 0.00 | 0.23 | 0.13 | 54 | 1009.4 |
| 20260509002104 | 10 | 248 | 3.2 | 4.8 | 0.00 | 0.25 | 0.13 | 54 | 1009.3 |
| 20260509001604 | 11 | 264 | 1.6 | 4.8 | 0.00 | 0.25 | 0.13 | 53 | 1009.3 |
| 20260509001104 | 11 | 259 | 1.6 | 4.8 | 0.00 | 0.30 | 0.13 | 52 | 1009.2 |
| 20260509000604 | 11 | 257 | 3.2 | 8.0 | 0.00 | 0.33 | 0.13 | 52 | 1009.3 |
| 20260509000104 | 11 | 252 | 1.6 | 9.7 | 0.00 | 0.36 | 0.13 | 51 | 1009.2 |
| 20260508235604 | 11 | 261 | 4.8 | 11.3 | 0.00 | 0.38 | 0.13 | 51 | 1009.2 |
| 20260508235103 | 11 | 254 | 3.2 | 8.0 | 0.00 | 0.41 | 0.13 | 50 | 1009.2 |
| 20260508234605 | 12 | 213 | 3.2 | 9.7 | 0.00 | 0.41 | 0.13 | 49 | 1009.1 |
| 20260508234104 | 12 | 246 | 4.8 | 11.3 | 0.00 | 0.41 | 0.13 | 50 | 1009.1 |
| 20260508233603 | 12 | 244 | 6.4 | 14.5 | 0.00 | 0.41 | 0.13 | 48 | 1009.1 |
| 20260508233104 | 12 | 246 | 4.8 | 12.9 | 0.00 | 0.41 | 0.13 | 49 | 1009.2 |
| 20260508232104 | 12 | 236 | 4.8 | 11.3 | 0.00 | 0.41 | 0.13 | 48 | 1009.1 |
| 20260508231603 | 12 | 247 | 6.4 | 14.5 | 0.00 | 0.41 | 0.13 | 49 | 1009.1 |
| 20260508231103 | 13 | 267 | 3.2 | 12.9 | 0.00 | 0.41 | 0.13 | 49 | 1009.1 |
| 20260508230104 | 13 | 277 | 1.6 | 4.8 | 0.00 | 0.41 | 0.13 | 51 | 1009.0 |
| 20260508225603 | 13 | 286 | 4.8 | 11.3 | 0.00 | 0.41 | 0.13 | 49 | 1009.1 |
| 20260508225103 | 13 | 261 | 4.8 | 9.7 | 0.00 | 0.41 | 0.13 | 48 | 1009.0 |
| 20260508224602 | 13 | 244 | 4.8 | 9.7 | 0.00 | 0.41 | 0.13 | 50 | 1009.1 |
| 20260508224103 | 13 | 287 | 3.2 | 8.0 | 0.00 | 0.41 | 0.13 | 50 | 1009.1 |
| 20260508223603 | 13 | 288 | 4.8 | 11.3 | 0.00 | 0.41 | 0.13 | 49 | 1009.1 |
| 20260508223103 | 13 | 263 | 3.2 | 8.0 | 0.00 | 0.41 | 0.13 | 49 | 1009.1 |
| 20260508222602 | 13 | 293 | 3.2 | 8.0 | 0.00 | 0.41 | 0.13 | 50 | 1009.1 |
| 20260508222102 | 13 | 256 | 4.8 | 8.0 | 0.00 | 0.41 | 0.13 | 50 | 1009.1 |
| 20260508221603 | 13 | 268 | 3.2 | 12.9 | 0.00 | 0.41 | 0.13 | 50 | 1009.1 |
| 20260508221103 | 13 | 252 | 3.2 | 4.8 | 0.00 | 0.41 | 0.13 | 52 | 1009.2 |
| 20260508215103 | 14 | 305 | 4.8 | 9.7 | 0.00 | 0.41 | 0.13 | 49 | 1009.3 |
| 20260508214102 | 14 | 270 | 8.0 | 16.1 | 0.00 | 0.41 | 0.13 | 52 | 1009.3 |
| 20260508213602 | 14 | 333 | 4.8 | 16.1 | 0.00 | 0.41 | 0.13 | 50 | 1009.3 |
| 20260508212603 | 14 | 301 | 6.4 | 12.9 | 0.00 | 0.41 | 0.13 | 54 | 1009.3 |
| 20260508212103 | 13 | 310 | 4.8 | 12.9 | 0.00 | 0.41 | 0.13 | 52 | 1009.3 |